CST,Max TemperatureF,Mean TemperatureF,Min TemperatureF,Max Dew PointF,MeanDew PointF,Min DewpointF,Max Humidity, Mean Humidity, Min Humidity, Max Sea Level PressureIn, Mean Sea Level PressureIn, Min Sea Level PressureIn, Max VisibilityMiles, Mean VisibilityMiles, Min VisibilityMiles, Max Wind SpeedMPH, Mean Wind SpeedMPH, Max Gust SpeedMPH,PrecipitationIn, CloudCover, Events, WindDirDegrees
2013-2-1,16,-7,-31,9,-6,-34,84,76,68,30.43,30.18,29.96,10,10,10,18,7,22,T,7,,194
2013-2-2,34,20,6,25,11,1,84,77,70,30.24,30.06,29.90,10,6,0,40,13,51,0.04,7,Fog-Snow,230
2013-2-3,20,13,6,12,7,1,80,73,66,30.23,30.04,29.86,10,10,10,18,9,22,0.00,7,,59
2013-2-4,25,12,-2,21,7,-6,88,81,73,30.12,29.93,29.73,10,8,1,20,10,22,0.01,7,Snow,169
2013-2-5,32,18,4,25,13,1,91,82,72,30.07,29.96,29.71,10,8,0,16,7,20,0.00,5,Fog,19
2013-2-6,35,22,8,25,19,7,92,82,72,30.11,29.94,29.84,10,8,2,17,8,22,0.00,5,,139
2013-2-7,22,20,18,19,16,14,92,85,77,30.32,30.23,30.06,10,8,2,16,8,20,0.00,8,,32
2013-2-8,29,24,19,25,20,17,92,85,78,30.32,30.14,29.97,10,6,2,30,14,36,0.00,7,,146
2013-2-9,31,24,17,29,24,15,92,85,78,29.96,29.86,29.74,6,3,0,14,6,17,0.25,6,Fog-Snow,65
2013-2-10,31,27,22,28,24,19,92,87,81,29.83,29.60,29.49,3,1,0,35,23,44,0.24,8,Fog-Snow,10
2013-2-11,23,15,7,18,14,5,91,80,68,30.12,30.01,29.82,10,7,2,35,15,41,T,7,Snow,301
2013-2-12,31,19,6,22,13,4,88,76,63,30.02,29.93,29.86,10,10,8,15,8,17,0.00,3,,218
2013-2-13,38,25,11,30,23,10,92,84,76,29.84,29.72,29.58,10,9,1,26,11,31,T,7,Snow,258
2013-2-14,31,16,0,27,17,-3,95,81,67,30.37,30.03,29.80,10,6,1,22,11,31,0.03,7,Snow,358
2013-2-15,22,8,-6,12,4,-9,95,81,67,30.45,30.34,30.25,10,5,0,10,3,12,0.04,5,Fog-Snow,242
2013-2-16,25,12,-2,20,12,-6,88,81,74,30.29,30.07,29.94,10,8,2,14,9,16,0.01,7,Snow,167
2013-2-17,34,26,18,29,21,16,96,86,75,29.95,29.71,29.54,10,8,2,20,11,23,0.00,3,,192
2013-2-18,35,20,4,30,8,-3,84,76,67,30.25,29.95,29.56,10,5,0,36,24,41,T,6,Snow,330
2013-2-19,4,-4,-13,-3,-13,-19,79,71,62,30.54,30.41,30.18,10,9,2,28,13,37,0.00,2,,352
2013-2-20,13,-3,-19,4,-10,-24,81,74,66,30.55,30.42,30.23,10,9,1,13,6,16,0.00,5,,60
2013-2-21,19,12,5,10,5,0,76,71,66,30.35,30.27,30.18,10,10,10,15,8,17,0.00,5,,79
2013-2-22,24,15,5,10,7,2,80,66,52,30.16,30.06,29.98,10,8,2,13,7,15,0.02,5,Snow,6
2013-2-23,21,9,-4,14,3,-8,91,81,71,29.97,29.89,29.83,10,6,0,10,4,10,0.00,1,Fog,150
2013-2-24,25,15,5,21,12,1,91,79,67,30.14,30.07,29.95,10,7,1,10,3,12,0.00,2,,190
2013-2-25,29,14,-1,21,6,-4,92,83,74,30.17,30.08,29.97,10,5,0,12,5,13,0.00,0,Fog,195
2013-2-26,19,11,2,13,7,0,96,86,76,30.16,30.04,29.98,10,4,0,12,3,13,T,6,Fog-Snow,67
2013-2-27,30,16,2,23,15,-2,88,81,74,30.28,30.21,30.15,10,10,6,21,11,28,0.00,3,,347
2013-2-28,26,20,14,19,15,10,84,76,68,30.35,30.31,30.24,10,10,10,16,12,21,0.00,6,,348